Regional Weather Roundup
Issued by NWS

Home | Current Version | Previous Version | Text Only | Print | Product List | Glossary Off
Versions: 1 2 3 4 5 6 7 8 9 10 11 12 13 14 15 16 17 18 19 20 21 22 23 24 25 26 27 28 29 30 31 32 33 34 35 36 37 38 39 40 41 42 43 44 45 46 47 48 49 50

557
ASUS43 KFSD 311202
RWRSD

WEATHER ROUNDUP FOR SOUTH DAKOTA
NATIONAL WEATHER SERVICE SIOUX FALLS SD
700 AM CDT WED AUG 31 2016

NOTE: "FAIR" INDICATES FEW OR NO CLOUDS BELOW 12,000 FEET WITH NO
SIGNIFICANT WEATHER AND/OR OBSTRUCTIONS TO VISIBILITY.


SDZ001>005-009-010-012>017-311300-
NORTHWEST AND NORTH CENTRAL SOUTH DAKOTA

CITY           SKY/WX    TMP DP  RH WIND       PRES   REMARKS
BUFFALO          N/A     60  57  89 SE6       30.08R
MOBRIDGE       CLEAR     66  60  81 E17       30.17R
$$

SDZ012>016-024>037-041>051-057-063-072>074-311300-
SOUTHWEST AND SOUTH CENTRAL SOUTH DAKOTA

CITY           SKY/WX    TMP DP  RH WIND       PRES   REMARKS
RAPID CTY ARPT CLEAR     56  54  93 SE8       30.18R
PIERRE         CLEAR     63  61  93 NE5       30.18R
CUSTER         CLEAR     55  50  83 SW3       30.31S
ELLSWORTH AFB  CLEAR     61  55  82 S5          N/A
PHILIP         CLEAR     66  61  84 S7        30.16R
PINE RIDGE     CLEAR     57  57 100 CALM      30.23S
WINNER         FAIR      64  61  90 SE6       30.20R
$$

SDZ004>011-016>023-039-040-311300-
NORTHEAST SOUTH DAKOTA

CITY           SKY/WX    TMP DP  RH WIND       PRES   REMARKS
ABERDEEN       LGT RAIN  61  59  93 E5        30.25R
WATERTOWN      PTCLDY    56  53  90 CALM      30.25R
SISSETON         N/A     54  52  93 CALM      30.23R
$$

SDZ017-020-022-023-036>040-048>070-311300-
SOUTHEAST SOUTH DAKOTA

CITY           SKY/WX    TMP DP  RH WIND       PRES   REMARKS
SIOUX FALLS    PTCLDY    55  54  96 NE3       30.23S
HURON          CLOUDY    63  60  90 SE6       30.22R
CHAMBERLAIN    CLEAR     65  65 100 E5        30.21R
MITCHELL       PTCLDY    62  60  93 SE5       30.22R
YANKTON        CLOUDY    63  61  94 CALM      30.20F VSB 3/4
$$

ABBREVIATIONS USED IN REMARKS
   TC - TEMPERATURE IN CELSIUS
  WCI - WIND CHILL INDEX
   HX - HEAT INDEX
  VSB - VISIBILITY





USA.gov is the U.S. government's official web portal to all federal, state and local government web resources and services.